Volver al catálogo

STARLINK-31271

ActivoComunicacionesVLEO
NORAD 58827·PAYLOAD·🇺🇸 United States

Lanzado Jan 24, 2024 desde Vandenberg Space Force Base

Loading…

Próximos Pases (próximas 24 horas)

TLE

ActualizadoSource: CelesTrak SupGP

Época: Sep 15, 2026, 02:36 UTC

1 58827C 24017B   26258.10881944 -.00012101  00000+0 -35757-3 0  2586
2 58827  53.1596  43.2182 0001065  88.0020 326.5756 15.34394742    18

Sigue STARLINK-31271 en tiempo real con AllMySat

Download on the App Store